| time (UTC) | temp F | wind direction | speed MPH | gust MPH | rain 1hr in | rain 24hr in | rain mn in | humidity % | barometer mb |
| 20260901222006 | 81 | 171 | 6.0 | 9.0 | 0.00 | 0.00 | 0.00 | 26 | 1018.1 |
| 20260901221503 | 81 | 175 | 5.0 | 9.0 | 0.00 | 0.00 | 0.00 | 26 | 1003.6 |
| 20260901221005 | 81 | 304 | 4.0 | 6.0 | 0.00 | 0.00 | 0.00 | 26 | 1018.2 |
| 20260901220009 | 80 | 224 | 1.0 | 9.0 | 0.00 | 0.00 | 0.00 | 27 | 1018.2 |
| 20260901220003 | 80 | 224 | 0.0 | 9.0 | 0.00 | 0.00 | 0.00 | 27 | 1003.7 |
| 20260901215506 | 80 | 224 | 1.0 | 16.0 | 0.00 | 0.00 | 0.00 | 27 | 1018.3 |
| 20260901215005 | 80 | 150 | 6.0 | 16.0 | 0.00 | 0.00 | 0.00 | 27 | 1018.4 |
| 20260901214505 | 81 | 190 | 6.0 | 11.0 | 0.00 | 0.00 | 0.00 | 26 | 1018.4 |
| 20260901214503 | 81 | 190 | 5.0 | 11.0 | 0.00 | 0.00 | 0.00 | 26 | 1004.0 |
| 20260901213504 | 81 | 182 | 9.0 | 17.0 | 0.00 | 0.00 | 0.00 | 27 | 1018.5 |
| 20260901213006 | 82 | 132 | 8.0 | 17.0 | 0.00 | 0.00 | 0.00 | 25 | 1018.5 |
| 20260901213004 | 82 | 132 | 8.0 | 17.0 | 0.00 | 0.00 | 0.00 | 25 | 1004.1 |
| 20260901212506 | 82 | 305 | 4.0 | 10.0 | 0.00 | 0.00 | 0.00 | 25 | 1018.5 |
| 20260901211505 | 81 | 201 | 5.0 | 10.0 | 0.00 | 0.00 | 0.00 | 28 | 1018.6 |
| 20260901211503 | 81 | 201 | 4.0 | 10.0 | 0.00 | 0.00 | 0.00 | 28 | 1004.2 |
| 20260901211006 | 81 | 254 | 3.0 | 8.0 | 0.00 | 0.00 | 0.00 | 26 | 1018.8 |
| 20260901210007 | 81 | 118 | 6.0 | 10.0 | 0.00 | 0.00 | 0.00 | 27 | 1019.0 |
| 20260901210003 | 81 | 118 | 5.0 | 10.0 | 0.00 | 0.00 | 0.00 | 27 | 1004.5 |
| 20260901205505 | 81 | 164 | 5.0 | 10.0 | 0.00 | 0.00 | 0.00 | 26 | 1019.0 |
| 20260901204504 | 81 | 238 | 5.0 | 10.0 | 0.00 | 0.00 | 0.00 | 27 | 1019.1 |
| 20260901204502 | 81 | 238 | 4.0 | 10.0 | 0.00 | 0.00 | 0.00 | 27 | 1004.7 |
| 20260901204006 | 80 | 257 | 5.0 | 11.0 | 0.00 | 0.00 | 0.00 | 25 | 1019.1 |
| 20260901203510 | 80 | 152 | 8.0 | 11.0 | 0.00 | 0.00 | 0.00 | 27 | 1019.2 |
| 20260901203009 | 80 | 203 | 5.0 | 10.0 | 0.00 | 0.00 | 0.00 | 27 | 1019.4 |
| 20260901203004 | 80 | 203 | 5.0 | 10.0 | 0.00 | 0.00 | 0.00 | 27 | 1004.9 |
| 20260901202505 | 79 | 306 | 2.0 | 8.0 | 0.00 | 0.00 | 0.00 | 28 | 1019.4 |
| 20260901202006 | 79 | 314 | 4.0 | 10.0 | 0.00 | 0.00 | 0.00 | 28 | 1019.4 |
| 20260901201508 | 79 | 201 | 6.0 | 10.0 | 0.00 | 0.00 | 0.00 | 27 | 1005.0 |
| 20260901201005 | 79 | 227 | 4.0 | 10.0 | 0.00 | 0.00 | 0.00 | 28 | 1019.5 |
| 20260901200504 | 78 | 149 | 4.0 | 10.0 | 0.00 | 0.00 | 0.00 | 31 | 1019.5 |
| 20260901200009 | 77 | 163 | 2.0 | 6.0 | 0.00 | 0.00 | 0.00 | 30 | 1005.2 |
| 20260901195505 | 77 | 187 | 2.0 | 7.0 | 0.00 | 0.00 | 0.00 | 28 | 1019.7 |
| 20260901195005 | 77 | 9 | 2.0 | 11.0 | 0.00 | 0.00 | 0.00 | 27 | 1019.7 |
| 20260901194505 | 78 | 10 | 6.0 | 14.0 | 0.00 | 0.00 | 0.00 | 27 | 1019.8 |
| 20260901194006 | 79 | 298 | 7.0 | 14.0 | 0.00 | 0.00 | 0.00 | 28 | 1019.6 |
| 20260901193504 | 79 | 248 | 5.0 | 9.0 | 0.00 | 0.00 | 0.00 | 28 | 1019.9 |
| 20260901193006 | 78 | 307 | 5.0 | 9.0 | 0.00 | 0.00 | 0.00 | 28 | 1019.9 |
| 20260901193004 | 78 | 307 | 4.0 | 9.0 | 0.00 | 0.00 | 0.00 | 28 | 1005.4 |
| 20260901192504 | 78 | 295 | 5.0 | 12.0 | 0.00 | 0.00 | 0.00 | 32 | 1019.9 |
| 20260901192006 | 77 | 281 | 6.0 | 13.0 | 0.00 | 0.00 | 0.00 | 30 | 1019.9 |
| 20260901191504 | 78 | 225 | 6.0 | 24.0 | 0.00 | 0.00 | 0.00 | 30 | 1020.0 |
| 20260901191502 | 78 | 225 | 6.0 | 24.0 | 0.00 | 0.00 | 0.00 | 30 | 1005.5 |
| 20260901191006 | 78 | 269 | 10.0 | 24.0 | 0.00 | 0.00 | 0.00 | 32 | 1019.9 |
| 20260901190004 | 77 | 173 | 4.0 | 11.0 | 0.00 | 0.00 | 0.00 | 31 | 1005.4 |
| 20260901185005 | 77 | 290 | 4.0 | 12.0 | 0.00 | 0.00 | 0.00 | 32 | 1020.2 |
| 20260901184505 | 76 | 261 | 4.0 | 12.0 | 0.00 | 0.00 | 0.00 | 32 | 1020.4 |
| 20260901184503 | 76 | 261 | 3.0 | 12.0 | 0.00 | 0.00 | 0.00 | 32 | 1005.9 |
| 20260901184006 | 77 | 291 | 5.0 | 12.0 | 0.00 | 0.00 | 0.00 | 31 | 1020.5 |
| 20260901183504 | 77 | 264 | 7.0 | 14.0 | 0.00 | 0.00 | 0.00 | 32 | 1020.5 |
| 20260901183006 | 77 | 284 | 8.0 | 14.0 | 0.00 | 0.00 | 0.00 | 32 | 1020.5 |
| 20260901183002 | 77 | 284 | 8.0 | 14.0 | 0.00 | 0.00 | 0.00 | 32 | 1005.9 |
| 20260901182506 | 77 | 198 | 2.0 | 6.0 | 0.00 | 0.00 | 0.00 | 35 | 1020.5 |
| 20260901182006 | 76 | 304 | 1.0 | 6.0 | 0.00 | 0.00 | 0.00 | 33 | 1020.6 |
| 20260901181505 | 76 | 55 | 1.0 | 5.0 | 0.00 | 0.00 | 0.00 | 32 | 1020.7 |
| 20260901181007 | 76 | 300 | 3.0 | 8.0 | 0.00 | 0.00 | 0.00 | 32 | 1020.7 |
| 20260901180505 | 75 | 5 | 4.0 | 9.0 | 0.00 | 0.00 | 0.00 | 35 | 1020.8 |
| 20260901180007 | 75 | 319 | 5.0 | 10.0 | 0.00 | 0.00 | 0.00 | 35 | 1021.0 |
| 20260901180003 | 75 | 319 | 4.0 | 10.0 | 0.00 | 0.00 | 0.00 | 35 | 1006.3 |
| 20260901175504 | 75 | 303 | 4.0 | 11.0 | 0.00 | 0.00 | 0.00 | 34 | 1021.0 |
| 20260901175007 | 75 | 248 | 5.0 | 9.0 | 0.00 | 0.00 | 0.00 | 37 | 1021.0 |
| 20260901174513 | 74 | 333 | 3.0 | 9.0 | 0.00 | 0.00 | 0.00 | 40 | 1006.4 |
| 20260901174506 | 74 | 333 | 4.0 | 9.0 | 0.00 | 0.00 | 0.00 | 40 | 1021.0 |
| 20260901174008 | 73 | 244 | 3.0 | 9.0 | 0.00 | 0.00 | 0.00 | 45 | 1021.1 |
| 20260901173005 | 72 | 265 | 5.0 | 10.0 | 0.00 | 0.00 | 0.00 | 45 | 1021.2 |
| 20260901173003 | 72 | 265 | 5.0 | 10.0 | 0.00 | 0.00 | 0.00 | 45 | 1006.6 |
| 20260901172504 | 72 | 275 | 3.0 | 10.0 | 0.00 | 0.00 | 0.00 | 45 | 1021.3 |
| 20260901172006 | 71 | 246 | 4.0 | 10.0 | 0.00 | 0.00 | 0.00 | 49 | 1021.4 |
| 20260901171502 | 71 | 222 | 3.0 | 8.0 | 0.00 | 0.00 | 0.00 | 48 | 1006.9 |
| 20260901171005 | 71 | 284 | 4.0 | 8.0 | 0.00 | 0.00 | 0.00 | 47 | 1021.6 |
| 20260901170505 | 71 | 244 | 4.0 | 8.0 | 0.00 | 0.00 | 0.00 | 47 | 1021.6 |
| 20260901170007 | 71 | 250 | 3.0 | 9.0 | 0.00 | 0.00 | 0.00 | 48 | 1021.6 |
| 20260901170003 | 71 | 250 | 3.0 | 9.0 | 0.00 | 0.00 | 0.00 | 48 | 1006.9 |
| 20260901165505 | 70 | 284 | 3.0 | 13.0 | 0.00 | 0.00 | 0.00 | 51 | 1021.7 |
| 20260901165005 | 70 | 282 | 5.0 | 13.0 | 0.00 | 0.00 | 0.00 | 51 | 1021.7 |
| 20260901164504 | 69 | 281 | 4.0 | 11.0 | 0.00 | 0.00 | 0.00 | 51 | 1021.8 |
| 20260901164502 | 69 | 281 | 4.0 | 11.0 | 0.00 | 0.00 | 0.00 | 51 | 1007.1 |
| 20260901164010 | 69 | 306 | 5.0 | 9.0 | 0.00 | 0.00 | 0.00 | 52 | 1021.8 |
| 20260901163505 | 68 | 255 | 3.0 | 8.0 | 0.00 | 0.00 | 0.00 | 54 | 1021.7 |
| 20260901163007 | 68 | 260 | 3.0 | 5.0 | 0.00 | 0.00 | 0.00 | 54 | 1021.7 |
| 20260901163004 | 68 | 260 | 2.0 | 5.0 | 0.00 | 0.00 | 0.00 | 54 | 1007.0 |
| 20260901162505 | 68 | 270 | 2.0 | 8.0 | 0.00 | 0.00 | 0.00 | 54 | 1021.6 |
| 20260901162007 | 67 | 270 | 3.0 | 11.0 | 0.00 | 0.00 | 0.00 | 55 | 1021.7 |
| 20260901161506 | 67 | 242 | 5.0 | 10.0 | 0.00 | 0.00 | 0.00 | 54 | 1021.6 |
| 20260901161502 | 67 | 242 | 4.0 | 10.0 | 0.00 | 0.00 | 0.00 | 54 | 1006.9 |
| 20260901161005 | 67 | 246 | 4.0 | 10.0 | 0.00 | 0.00 | 0.00 | 55 | 1021.4 |
| 20260901160507 | 67 | 251 | 3.0 | 8.0 | 0.00 | 0.00 | 0.00 | 55 | 1021.4 |
| 20260901160006 | 66 | 263 | 3.0 | 9.0 | 0.00 | 0.00 | 0.00 | 55 | 1021.3 |
| 20260901155505 | 66 | 281 | 5.0 | 11.0 | 0.00 | 0.00 | 0.00 | 56 | 1021.3 |
| 20260901155005 | 66 | 283 | 5.0 | 11.0 | 0.00 | 0.00 | 0.00 | 56 | 1021.3 |
| 20260901154505 | 66 | 245 | 4.0 | 11.0 | 0.00 | 0.00 | 0.00 | 57 | 1021.2 |
| 20260901154502 | 66 | 245 | 3.0 | 11.0 | 0.00 | 0.00 | 0.00 | 57 | 1006.6 |
| 20260901153005 | 66 | 293 | 3.0 | 9.0 | 0.00 | 0.00 | 0.00 | 57 | 1021.1 |
| 20260901153002 | 66 | 293 | 3.0 | 9.0 | 0.00 | 0.00 | 0.00 | 57 | 1006.4 |
| 20260901152005 | 66 | 215 | 3.0 | 11.0 | 0.00 | 0.00 | 0.00 | 58 | 1021.1 |
| 20260901151504 | 66 | 301 | 5.0 | 12.0 | 0.00 | 0.00 | 0.00 | 57 | 1021.1 |
| 20260901151501 | 66 | 301 | 5.0 | 12.0 | 0.00 | 0.00 | 0.00 | 57 | 1006.4 |
| 20260901151006 | 66 | 262 | 6.0 | 12.0 | 0.00 | 0.00 | 0.00 | 57 | 1021.0 |
| 20260901150505 | 66 | 210 | 5.0 | 12.0 | 0.00 | 0.00 | 0.00 | 58 | 1020.8 |
| 20260901150008 | 65 | 252 | 5.0 | 12.0 | 0.00 | 0.00 | 0.00 | 59 | 1006.1 |
| 20260901145505 | 64 | 230 | 3.0 | 7.0 | 0.00 | 0.00 | 0.00 | 62 | 1021.0 |
| 20260901145005 | 64 | 266 | 3.0 | 5.0 | 0.00 | 0.00 | 0.00 | 64 | 1020.9 |
| 20260901144503 | 63 | 232 | 1.0 | 5.0 | 0.00 | 0.00 | 0.00 | 66 | 1006.2 |
| 20260901144005 | 63 | 240 | 2.0 | 5.0 | 0.00 | 0.00 | 0.00 | 65 | 1021.0 |
| 20260901143505 | 63 | 212 | 2.0 | 6.0 | 0.00 | 0.00 | 0.00 | 65 | 1020.7 |
| 20260901143006 | 63 | 236 | 2.0 | 9.0 | 0.00 | 0.00 | 0.00 | 66 | 1020.7 |
| 20260901143002 | 63 | 236 | 1.0 | 9.0 | 0.00 | 0.00 | 0.00 | 66 | 1006.0 |
| 20260901142506 | 63 | 248 | 3.0 | 9.0 | 0.00 | 0.00 | 0.00 | 65 | 1020.7 |
| 20260901142006 | 62 | 252 | 4.0 | 7.0 | 0.00 | 0.00 | 0.00 | 67 | 1020.6 |
| 20260901141506 | 62 | 246 | 3.0 | 5.0 | 0.00 | 0.00 | 0.00 | 69 | 1020.6 |
| 20260901141503 | 62 | 246 | 2.0 | 5.0 | 0.00 | 0.00 | 0.00 | 69 | 1005.8 |
| 20260901140504 | 62 | 248 | 1.0 | 5.0 | 0.00 | 0.00 | 0.00 | 69 | 1020.6 |
| 20260901140007 | 62 | 248 | 3.0 | 8.0 | 0.00 | 0.00 | 0.00 | 68 | 1020.6 |
| 20260901140002 | 62 | 248 | 2.0 | 8.0 | 0.00 | 0.00 | 0.00 | 68 | 1005.8 |
| 20260901135504 | 62 | 225 | 3.0 | 8.0 | 0.00 | 0.00 | 0.00 | 68 | 1020.6 |
| 20260901135006 | 62 | 230 | 2.0 | 7.0 | 0.00 | 0.00 | 0.00 | 69 | 1020.7 |
| 20260901134505 | 62 | 243 | 3.0 | 7.0 | 0.00 | 0.00 | 0.00 | 68 | 1020.7 |
| 20260901134502 | 62 | 243 | 3.0 | 7.0 | 0.00 | 0.00 | 0.00 | 68 | 1005.9 |
| 20260901133504 | 61 | 255 | 3.0 | 6.0 | 0.00 | 0.00 | 0.00 | 71 | 1020.5 |
| 20260901133005 | 60 | 280 | 2.0 | 6.0 | 0.00 | 0.00 | 0.00 | 73 | 1020.5 |
| 20260901133003 | 60 | 280 | 2.0 | 6.0 | 0.00 | 0.00 | 0.00 | 73 | 1005.6 |
| 20260901132505 | 60 | 238 | 1.0 | 6.0 | 0.00 | 0.00 | 0.00 | 74 | 1020.3 |
| 20260901131505 | 60 | 233 | 3.0 | 7.0 | 0.00 | 0.00 | 0.00 | 76 | 1020.3 |
| 20260901131502 | 60 | 233 | 2.0 | 7.0 | 0.00 | 0.00 | 0.00 | 76 | 1005.4 |
| 20260901131006 | 60 | 223 | 3.0 | 8.0 | 0.00 | 0.00 | 0.00 | 77 | 1020.2 |
| 20260901130505 | 60 | 200 | 4.0 | 8.0 | 0.00 | 0.00 | 0.00 | 77 | 1020.1 |
| 20260901130057 | 60 | 173 | 4.0 | 8.0 | 0.00 | 0.00 | 0.00 | 77 | 1005.2 |
| 20260901130007 | 60 | 227 | 5.0 | 8.0 | 0.00 | 0.00 | 0.00 | 77 | 1020.1 |
| 20260901130003 | 60 | 227 | 4.0 | 8.0 | 0.00 | 0.00 | 0.00 | 77 | 1005.2 |
| 20260901125504 | 59 | 205 | 3.0 | 8.0 | 0.00 | 0.00 | 0.00 | 77 | 1019.9 |
| 20260901125006 | 59 | 196 | 4.0 | 10.0 | 0.00 | 0.00 | 0.00 | 77 | 1019.9 |
| 20260901124505 | 59 | 201 | 4.0 | 10.0 | 0.00 | 0.00 | 0.00 | 77 | 1019.8 |
| 20260901124006 | 59 | 202 | 4.0 | 8.0 | 0.00 | 0.00 | 0.00 | 77 | 1019.9 |
| 20260901123504 | 60 | 209 | 4.0 | 9.0 | 0.00 | 0.00 | 0.00 | 76 | 1019.8 |
| 20260901123006 | 60 | 240 | 4.0 | 9.0 | 0.00 | 0.00 | 0.00 | 76 | 1004.7 |
| 20260901122505 | 60 | 233 | 4.0 | 7.0 | 0.00 | 0.00 | 0.00 | 76 | 1019.6 |
| 20260901122004 | 59 | 265 | 4.0 | 8.0 | 0.00 | 0.00 | 0.00 | 76 | 1019.5 |
| 20260901121502 | 59 | 206 | 3.0 | 7.0 | 0.00 | 0.00 | 0.00 | 77 | 1004.6 |
| 20260901121005 | 59 | 201 | 2.0 | 5.0 | 0.00 | 0.00 | 0.00 | 77 | 1019.4 |
| 20260901120006 | 59 | 234 | 3.0 | 7.0 | 0.00 | 0.00 | 0.00 | 77 | 1019.4 |
| 20260901114504 | 58 | 226 | 3.0 | 5.0 | 0.00 | 0.00 | 0.00 | 79 | 1019.5 |
| 20260901114005 | 58 | 226 | 1.0 | 3.0 | 0.00 | 0.00 | 0.00 | 79 | 1019.5 |
| 20260901113505 | 58 | 226 | 0.0 | 2.0 | 0.00 | 0.00 | 0.00 | 79 | 1019.6 |
| 20260901113006 | 58 | 226 | 0.0 | 6.0 | 0.00 | 0.00 | 0.00 | 79 | 1019.6 |
| 20260901113003 | 58 | 226 | 0.0 | 6.0 | 0.00 | 0.00 | 0.00 | 79 | 1004.8 |
| 20260901112504 | 58 | 173 | 2.0 | 5.0 | 0.00 | 0.00 | 0.00 | 80 | 1019.9 |
| 20260901112006 | 58 | 173 | 3.0 | 5.0 | 0.00 | 0.00 | 0.00 | 80 | 1019.8 |
| 20260901111503 | 58 | 173 | 2.0 | 4.0 | 0.00 | 0.00 | 0.00 | 80 | 1019.9 |
| 20260901111000 | 58 | 173 | 2.0 | 4.0 | 0.00 | 0.00 | 0.00 | 80 | 1019.9 |
| 20260901110003 | 58 | 173 | 1.0 | 4.0 | 0.00 | 0.00 | 0.00 | 80 | 1005.3 |
| 20260901105504 | 58 | 173 | 2.0 | 4.0 | 0.00 | 0.00 | 0.00 | 79 | 1020.1 |
| 20260901104505 | 58 | 173 | 2.0 | 3.0 | 0.00 | 0.00 | 0.00 | 79 | 1020.2 |
| 20260901104502 | 58 | 173 | 1.0 | 3.0 | 0.00 | 0.00 | 0.00 | 79 | 1005.4 |
| 20260901104006 | 58 | 173 | 1.0 | 3.0 | 0.00 | 0.00 | 0.00 | 80 | 1020.3 |
| 20260901103504 | 58 | 173 | 1.0 | 3.0 | 0.00 | 0.00 | 0.00 | 80 | 1020.2 |
| 20260901103005 | 58 | 173 | 0.0 | 2.0 | 0.00 | 0.00 | 0.00 | 80 | 1020.2 |
| 20260901103002 | 58 | 173 | 0.0 | 2.0 | 0.00 | 0.00 | 0.00 | 80 | 1005.4 |
| 20260901102504 | 58 | 173 | 0.0 | 3.0 | 0.00 | 0.00 | 0.00 | 79 | 1020.3 |
| 20260901102006 | 58 | 173 | 1.0 | 3.0 | 0.00 | 0.00 | 0.00 | 79 | 1020.2 |
| 20260901101503 | 58 | 173 | 0.0 | 2.0 | 0.00 | 0.00 | 0.00 | 80 | 1005.6 |
| 20260901101005 | 58 | 173 | 0.0 | 2.0 | 0.00 | 0.00 | 0.00 | 79 | 1020.4 |
| 20260901100504 | 58 | 173 | 0.0 | 3.0 | 0.00 | 0.00 | 0.00 | 78 | 1020.3 |
| 20260901100009 | 58 | 173 | 0.0 | 3.0 | 0.00 | 0.00 | 0.00 | 78 | 1020.4 |
| 20260901100003 | 58 | 173 | 0.0 | 3.0 | 0.00 | 0.00 | 0.00 | 78 | 1005.7 |
| 20260901095006 | 58 | 173 | 2.0 | 6.0 | 0.00 | 0.00 | 0.00 | 78 | 1020.6 |
| 20260901094507 | 58 | 173 | 3.0 | 6.0 | 0.00 | 0.00 | 0.00 | 79 | 1006.0 |
| 20260901094505 | 58 | 173 | 4.0 | 6.0 | 0.00 | 0.00 | 0.00 | 79 | 1020.7 |
| 20260901093504 | 57 | 112 | 3.0 | 4.0 | 0.00 | 0.00 | 0.00 | 80 | 1020.7 |
| 20260901093006 | 57 | 112 | 1.0 | 2.0 | 0.00 | 0.00 | 0.00 | 80 | 1020.7 |
| 20260901093002 | 57 | 112 | 0.0 | 2.0 | 0.00 | 0.00 | 0.00 | 80 | 1006.0 |
| 20260901092504 | 57 | 112 | 1.0 | 4.0 | 0.00 | 0.00 | 0.00 | 79 | 1020.7 |
| 20260901092005 | 58 | 112 | 2.0 | 4.0 | 0.00 | 0.00 | 0.00 | 79 | 1020.8 |
| 20260901091505 | 57 | 112 | 3.0 | 4.0 | 0.00 | 0.00 | 0.00 | 79 | 1020.8 |
| 20260901091503 | 57 | 112 | 3.0 | 4.0 | 0.00 | 0.00 | 0.00 | 79 | 1006.2 |
| 20260901091005 | 57 | 112 | 3.0 | 4.0 | 0.00 | 0.00 | 0.00 | 80 | 1020.8 |
| 20260901090504 | 56 | 112 | 2.0 | 2.0 | 0.00 | 0.00 | 0.00 | 81 | 1021.0 |
| 20260901090104 | 56 | 112 | 0.0 | 0.0 | 0.00 | 0.00 | 0.00 | 81 | 1006.3 |
| 20260901090000 | 56 | 112 | 0.0 | 0.0 | 0.00 | 0.00 | 0.00 | 81 | 1021.0 |
| 20260901085504 | 56 | 112 | 0.0 | 2.0 | 0.00 | 0.00 | 0.00 | 81 | 1021.0 |
| 20260901085006 | 56 | 112 | 1.0 | 2.0 | 0.00 | 0.00 | 0.00 | 81 | 1021.0 |
| 20260901084504 | 56 | 112 | 0.0 | 3.0 | 0.00 | 0.00 | 0.00 | 81 | 1021.0 |
| 20260901084502 | 56 | 112 | 0.0 | 3.0 | 0.00 | 0.00 | 0.00 | 81 | 1006.3 |
| 20260901084005 | 56 | 112 | 1.0 | 6.0 | 0.00 | 0.00 | 0.00 | 80 | 1020.9 |
| 20260901083505 | 56 | 112 | 5.0 | 6.0 | 0.00 | 0.00 | 0.00 | 79 | 1021.0 |
| 20260901083058 | 57 | 184 | 2.0 | 4.0 | 0.00 | 0.00 | 0.00 | 78 | 1006.5 |
| 20260901083005 | 57 | 184 | 2.0 | 3.0 | 0.00 | 0.00 | 0.00 | 78 | 1021.2 |
| 20260901083003 | 57 | 184 | 1.0 | 3.0 | 0.00 | 0.00 | 0.00 | 78 | 1006.5 |
| 20260901082506 | 57 | 184 | 1.0 | 3.0 | 0.00 | 0.00 | 0.00 | 78 | 1021.2 |
| 20260901082005 | 57 | 184 | 1.0 | 2.0 | 0.00 | 0.00 | 0.00 | 78 | 1021.5 |
| 20260901081504 | 57 | 184 | 1.0 | 2.0 | 0.00 | 0.00 | 0.00 | 78 | 1021.5 |
| 20260901081004 | 56 | 184 | 1.0 | 3.0 | 0.00 | 0.00 | 0.00 | 78 | 1021.5 |
| 20260901080504 | 56 | 184 | 1.0 | 2.0 | 0.00 | 0.00 | 0.00 | 79 | 1021.6 |
| 20260901080007 | 56 | 184 | 1.0 | 2.0 | 0.00 | 0.00 | 0.00 | 80 | 1021.6 |
| 20260901080005 | 56 | 184 | 1.0 | 2.0 | 0.00 | 0.00 | 0.00 | 80 | 1006.9 |
| 20260901075504 | 56 | 184 | 0.0 | 3.0 | 0.00 | 0.00 | 0.00 | 80 | 1021.7 |
| 20260901075005 | 56 | 184 | 0.0 | 3.0 | 0.00 | 0.00 | 0.00 | 80 | 1021.6 |
| 20260901074504 | 55 | 184 | 2.0 | 4.0 | 0.00 | 0.00 | 0.00 | 81 | 1021.7 |
| 20260901074502 | 55 | 184 | 1.0 | 4.0 | 0.00 | 0.00 | 0.00 | 81 | 1007.0 |
| 20260901074005 | 55 | 184 | 3.0 | 4.0 | 0.00 | 0.00 | 0.00 | 82 | 1021.7 |
| 20260901073504 | 55 | 184 | 1.0 | 3.0 | 0.00 | 0.00 | 0.00 | 81 | 1021.8 |
| 20260901073006 | 55 | 184 | 0.0 | 2.0 | 0.00 | 0.00 | 0.00 | 81 | 1021.8 |
| 20260901073002 | 55 | 184 | 0.0 | 2.0 | 0.00 | 0.00 | 0.00 | 81 | 1007.1 |
| 20260901072504 | 55 | 184 | 0.0 | 1.0 | 0.00 | 0.00 | 0.00 | 80 | 1021.8 |
| 20260901072001 | 55 | 184 | 0.0 | 3.0 | 0.00 | 0.00 | 0.00 | 79 | 1021.7 |
| 20260901071600 | 55 | 184 | 0.0 | 3.0 | 0.00 | 0.00 | 0.00 | 79 | 1006.9 |
| 20260901071502 | 55 | 184 | 0.0 | 3.0 | 0.00 | 0.00 | 0.00 | 79 | 1021.6 |
| 20260901071006 | 55 | 184 | 2.0 | 3.0 | 0.00 | 0.00 | 0.00 | 79 | 1021.6 |
| 20260901070505 | 56 | 184 | 1.0 | 2.0 | 0.00 | 0.00 | 0.00 | 77 | 1021.6 |
| 20260901070007 | 57 | 184 | 1.0 | 2.0 | 0.00 | 0.00 | 0.00 | 75 | 1021.6 |
| 20260901070002 | 57 | 184 | 0.0 | 2.0 | 0.00 | 0.00 | 0.00 | 75 | 1007.0 |
| 20260901064505 | 59 | 184 | 1.0 | 3.0 | 0.00 | 0.00 | 0.00 | 73 | 1021.6 |
| 20260901064503 | 59 | 184 | 1.0 | 3.0 | 0.00 | 0.00 | 0.00 | 73 | 1006.9 |
| 20260901064006 | 59 | 184 | 1.0 | 2.0 | 0.00 | 0.00 | 0.00 | 73 | 1021.5 |
| 20260901063504 | 59 | 184 | 0.0 | 1.0 | 0.00 | 0.00 | 0.00 | 73 | 1021.3 |
| 20260901063005 | 58 | 184 | 0.0 | 2.0 | 0.00 | 0.00 | 0.00 | 73 | 1021.2 |
| 20260901062505 | 59 | 184 | 1.0 | 2.0 | 0.00 | 0.00 | 0.00 | 73 | 1021.4 |
| 20260901061502 | 59 | 184 | 0.0 | 2.0 | 0.00 | 0.00 | 0.00 | 72 | 1006.7 |
| 20260901061006 | 59 | 184 | 1.0 | 2.0 | 0.00 | 0.00 | 0.00 | 72 | 1021.5 |
| 20260901060505 | 59 | 184 | 0.0 | 4.0 | 0.00 | 0.00 | 0.00 | 72 | 1021.5 |
| 20260901060008 | 59 | 184 | 3.0 | 4.0 | 0.00 | 0.00 | 0.00 | 73 | 1021.6 |
| 20260901060004 | 59 | 184 | 2.0 | 4.0 | 0.00 | 0.00 | 0.00 | 73 | 1006.9 |
| 20260901055505 | 59 | 184 | 1.0 | 3.0 | 0.00 | 0.01 | 0.00 | 73 | 1021.6 |
| 20260901055006 | 59 | 184 | 1.0 | 3.0 | 0.00 | 0.01 | 0.00 | 74 | 1021.7 |
| 20260901054558 | 59 | 184 | 1.0 | 3.0 | 0.00 | 0.01 | 0.00 | 74 | 1006.9 |
| 20260901054500 | 59 | 184 | 1.0 | 3.0 | 0.00 | 0.01 | 0.00 | 74 | 1021.6 |
| 20260901054006 | 59 | 184 | 0.0 | 2.0 | 0.00 | 0.01 | 0.00 | 75 | 1021.8 |
| 20260901053504 | 59 | 184 | 1.0 | 2.0 | 0.00 | 0.01 | 0.00 | 75 | 1021.8 |
| 20260901053007 | 59 | 184 | 0.0 | 4.0 | 0.00 | 0.01 | 0.00 | 75 | 1021.8 |
| 20260901053004 | 59 | 184 | 0.0 | 4.0 | 0.00 | 0.01 | 0.00 | 75 | 1007.0 |
| 20260901052504 | 59 | 184 | 2.0 | 4.0 | 0.00 | 0.01 | 0.00 | 75 | 1021.9 |
| 20260901051503 | 59 | 184 | 1.0 | 3.0 | 0.00 | 0.01 | 0.00 | 75 | 1007.0 |
| 20260901051006 | 60 | 184 | 2.0 | 4.0 | 0.00 | 0.01 | 0.00 | 74 | 1021.8 |
| 20260901050506 | 60 | 184 | 1.0 | 9.0 | 0.00 | 0.01 | 0.00 | 73 | 1021.8 |
| 20260901050006 | 60 | 184 | 5.0 | 9.0 | 0.00 | 0.01 | 0.00 | 74 | 1022.0 |
| 20260901050004 | 60 | 184 | 5.0 | 9.0 | 0.00 | 0.01 | 0.00 | 74 | 1007.2 |
| 20260901045506 | 60 | 189 | 4.0 | 9.0 | 0.00 | 0.02 | 0.00 | 75 | 1022.0 |
| 20260901044507 | 59 | 171 | 7.0 | 10.0 | 0.00 | 0.02 | 0.00 | 76 | 1021.8 |
| 20260901044006 | 59 | 144 | 7.0 | 8.0 | 0.00 | 0.02 | 0.00 | 76 | 1022.0 |
| 20260901043007 | 59 | 138 | 6.0 | 8.0 | 0.00 | 0.02 | 0.00 | 76 | 1021.8 |
| 20260901043003 | 59 | 138 | 5.0 | 8.0 | 0.00 | 0.02 | 0.00 | 76 | 1007.0 |
| 20260901042505 | 59 | 161 | 4.0 | 7.0 | 0.00 | 0.02 | 0.00 | 76 | 1021.6 |
| 20260901041505 | 60 | 120 | 5.0 | 7.0 | 0.00 | 0.02 | 0.00 | 75 | 1021.6 |
| 20260901041503 | 60 | 120 | 4.0 | 7.0 | 0.00 | 0.02 | 0.00 | 75 | 1006.8 |
| 20260901040505 | 60 | 265 | 2.0 | 6.0 | 0.00 | 0.02 | 0.00 | 74 | 1021.7 |
| 20260901040003 | 60 | 265 | 1.0 | 6.0 | 0.00 | 0.02 | 0.00 | 74 | 1006.9 |
| 20260901035505 | 61 | 265 | 2.0 | 5.0 | 0.00 | 0.02 | 0.00 | 73 | 1021.6 |
| 20260901035007 | 61 | 265 | 2.0 | 5.0 | 0.00 | 0.02 | 0.00 | 73 | 1021.6 |
| 20260901034506 | 61 | 220 | 3.0 | 6.0 | 0.00 | 0.02 | 0.00 | 73 | 1021.8 |
| 20260901034007 | 61 | 275 | 1.0 | 7.0 | 0.00 | 0.02 | 0.00 | 72 | 1022.0 |
| 20260901033505 | 61 | 275 | 3.0 | 11.0 | 0.00 | 0.02 | 0.00 | 72 | 1021.9 |
| 20260901033059 | 62 | 273 | 2.0 | 13.0 | 0.00 | 0.02 | 0.00 | 72 | 1007.0 |
| 20260901033001 | 62 | 273 | 4.0 | 13.0 | 0.00 | 0.02 | 0.00 | 72 | 1021.8 |
| 20260901032505 | 62 | 304 | 6.0 | 14.0 | 0.00 | 0.02 | 0.00 | 72 | 1021.8 |
| 20260901032006 | 62 | 302 | 7.0 | 15.0 | 0.00 | 0.02 | 0.00 | 72 | 1021.8 |
| 20260901031505 | 62 | 287 | 10.0 | 17.0 | 0.00 | 0.02 | 0.00 | 71 | 1021.8 |
| 20260901031503 | 62 | 287 | 9.0 | 17.0 | 0.00 | 0.02 | 0.00 | 71 | 1007.1 |
| 20260901031001 | 63 | 288 | 11.0 | 20.0 | 0.00 | 0.02 | 0.00 | 68 | 1021.8 |
| 20260901030506 | 63 | 311 | 11.0 | 18.0 | 0.00 | 0.02 | 0.00 | 67 | 1021.8 |
| 20260901030007 | 64 | 290 | 9.0 | 17.0 | 0.00 | 0.02 | 0.00 | 65 | 1021.9 |
| 20260901030005 | 64 | 290 | 8.0 | 17.0 | 0.00 | 0.02 | 0.00 | 65 | 1007.3 |
| 20260901025506 | 64 | 312 | 10.0 | 14.0 | 0.00 | 0.02 | 0.00 | 63 | 1021.9 |
| 20260901025006 | 65 | 312 | 6.0 | 12.0 | 0.00 | 0.02 | 0.00 | 62 | 1021.8 |
| 20260901024505 | 65 | 277 | 5.0 | 17.0 | 0.00 | 0.02 | 0.00 | 61 | 1021.8 |
| 20260901024502 | 65 | 277 | 5.0 | 17.0 | 0.00 | 0.02 | 0.00 | 61 | 1007.2 |
| 20260901024006 | 65 | 284 | 7.0 | 14.0 | 0.00 | 0.02 | 0.00 | 60 | 1021.7 |
| 20260901023506 | 65 | 328 | 5.0 | 14.0 | 0.00 | 0.02 | 0.00 | 59 | 1021.5 |
| 20260901023006 | 66 | 342 | 7.0 | 14.0 | 0.00 | 0.02 | 0.00 | 59 | 1021.2 |
| 20260901023003 | 66 | 262 | 6.0 | 14.0 | 0.00 | 0.02 | 0.00 | 59 | 1006.6 |
| 20260901022501 | 67 | 210 | 8.0 | 21.0 | 0.00 | 0.02 | 0.00 | 57 | 1021.2 |
| 20260901022007 | 68 | 331 | 9.0 | 21.0 | 0.00 | 0.02 | 0.00 | 52 | 1021.0 |
| 20260901021504 | 69 | 241 | 6.0 | 11.0 | 0.00 | 0.02 | 0.00 | 47 | 1020.8 |
| 20260901021006 | 69 | 200 | 2.0 | 4.0 | 0.00 | 0.02 | 0.00 | 47 | 1020.3 |
| 20260901020008 | 70 | 200 | 2.0 | 6.0 | 0.00 | 0.02 | 0.00 | 45 | 1019.7 |
| 20260901020005 | 70 | 200 | 1.0 | 6.0 | 0.00 | 0.02 | 0.00 | 45 | 1005.1 |
| 20260901015505 | 70 | 200 | 4.0 | 8.0 | 0.00 | 0.02 | 0.00 | 45 | 1019.7 |
| 20260901015007 | 70 | 180 | 6.0 | 8.0 | 0.00 | 0.02 | 0.00 | 45 | 1019.5 |
| 20260901014504 | 70 | 170 | 6.0 | 10.0 | 0.00 | 0.02 | 0.00 | 46 | 1019.4 |
| 20260901014502 | 70 | 170 | 5.0 | 10.0 | 0.00 | 0.02 | 0.00 | 46 | 1004.8 |
| 20260901014006 | 70 | 176 | 6.0 | 10.0 | 0.00 | 0.02 | 0.00 | 46 | 1019.3 |
| 20260901013007 | 70 | 142 | 6.0 | 10.0 | 0.00 | 0.02 | 0.00 | 46 | 1019.3 |
| 20260901013004 | 70 | 142 | 6.0 | 10.0 | 0.00 | 0.02 | 0.00 | 46 | 1004.6 |
| 20260901012012 | 70 | 140 | 9.0 | 13.0 | 0.00 | 0.02 | 0.00 | 46 | 1019.3 |
| 20260901011506 | 70 | 162 | 8.0 | 12.0 | 0.00 | 0.02 | 0.00 | 46 | 1019.3 |
| 20260901011006 | 70 | 151 | 6.0 | 11.0 | 0.00 | 0.02 | 0.00 | 46 | 1019.3 |
| 20260901010505 | 70 | 161 | 7.0 | 12.0 | 0.00 | 0.02 | 0.00 | 46 | 1019.3 |
| 20260901010007 | 71 | 136 | 8.0 | 13.0 | 0.00 | 0.02 | 0.00 | 45 | 1019.3 |
| 20260901010004 | 71 | 136 | 8.0 | 13.0 | 0.00 | 0.02 | 0.00 | 45 | 1004.6 |
| 20260901005506 | 71 | 150 | 10.0 | 16.0 | 0.00 | 0.02 | 0.00 | 44 | 1019.2 |
| 20260901005007 | 71 | 159 | 11.0 | 17.0 | 0.00 | 0.02 | 0.00 | 43 | 1019.3 |
| 20260901004505 | 72 | 158 | 11.0 | 19.0 | 0.00 | 0.02 | 0.00 | 43 | 1019.5 |
| 20260901003506 | 74 | 127 | 13.0 | 17.0 | 0.00 | 0.02 | 0.00 | 40 | 1019.7 |
| 20260901003007 | 75 | 109 | 10.0 | 20.0 | 0.00 | 0.02 | 0.00 | 40 | 1019.7 |
| 20260901002505 | 75 | 105 | 14.0 | 20.0 | 0.00 | 0.02 | 0.00 | 41 | 1019.7 |
| 20260901002006 | 75 | 76 | 12.0 | 18.0 | 0.00 | 0.02 | 0.00 | 43 | 1019.6 |
| 20260901001502 | 75 | 92 | 10.0 | 18.0 | 0.00 | 0.02 | 0.00 | 42 | 1005.2 |
| 20260901001006 | 76 | 96 | 12.0 | 18.0 | 0.00 | 0.02 | 0.00 | 41 | 1019.7 |
| 20260901000505 | 76 | 94 | 10.0 | 16.0 | 0.00 | 0.02 | 0.00 | 42 | 1019.8 |
| 20260901000004 | 76 | 92 | 10.0 | 16.0 | 0.00 | 0.02 | 0.00 | 40 | 1005.4 |
| 20260831235505 | 77 | 110 | 8.0 | 15.0 | 0.00 | 0.02 | 0.00 | 39 | 1019.9 |
| 20260831234506 | 77 | 107 | 11.0 | 17.0 | 0.00 | 0.02 | 0.00 | 38 | 1005.3 |
| 20260831234007 | 77 | 113 | 9.0 | 13.0 | 0.00 | 0.02 | 0.00 | 37 | 1019.9 |
| 20260831233506 | 77 | 109 | 8.0 | 12.0 | 0.00 | 0.02 | 0.00 | 38 | 1019.8 |
| 20260831233004 | 77 | 104 | 7.0 | 12.0 | 0.00 | 0.02 | 0.00 | 38 | 1005.5 |
| 20260831232008 | 77 | 78 | 6.0 | 12.0 | 0.00 | 0.02 | 0.00 | 37 | 1020.0 |
| 20260831231505 | 77 | 98 | 8.0 | 12.0 | 0.00 | 0.02 | 0.00 | 37 | 1020.0 |
| 20260831231503 | 77 | 98 | 8.0 | 12.0 | 0.00 | 0.02 | 0.00 | 37 | 1005.8 |
| 20260831230506 | 77 | 67 | 6.0 | 11.0 | 0.00 | 0.02 | 0.00 | 38 | 1020.0 |
| 20260831230009 | 76 | 57 | 6.0 | 11.0 | 0.00 | 0.02 | 0.00 | 37 | 1020.0 |
| 20260831230004 | 76 | 57 | 6.0 | 11.0 | 0.00 | 0.02 | 0.00 | 37 | 1005.9 |
| 20260831225505 | 76 | 87 | 7.0 | 9.0 | 0.00 | 0.02 | 0.00 | 38 | 1020.1 |
| 20260831225002 | 76 | 83 | 4.0 | 8.0 | 0.00 | 0.02 | 0.00 | 37 | 1020.1 |
| 20260831224505 | 76 | 99 | 5.0 | 9.0 | 0.00 | 0.02 | 0.00 | 37 | 1020.3 |
| 20260831224503 | 76 | 99 | 5.0 | 9.0 | 0.00 | 0.02 | 0.00 | 37 | 1006.2 |
| 20260831224007 | 77 | 84 | 6.0 | 11.0 | 0.00 | 0.02 | 0.00 | 36 | 1020.3 |
| 20260831223505 | 77 | 78 | 4.0 | 11.0 | 0.00 | 0.02 | 0.00 | 34 | 1020.2 |
| 20260831223005 | 78 | 106 | 2.0 | 9.0 | 0.00 | 0.02 | 0.00 | 34 | 1020.4 |
| 20260831223003 | 78 | 106 | 2.0 | 9.0 | 0.00 | 0.02 | 0.00 | 34 | 1006.3 |